Printer-friendly version

IAU Minor Planet Center

Minor Planet Center

MPEC 2000-O30: 2000 OM

The following Minor Planet Electronic Circular may be linked-to from your own Web pages, but must not otherwise be redistributed electronically.


Read MPEC 2000-O29 Read MPEC 2000-O31


M.P.E.C. 2000-O30                                Issued 2000 July 27, 19:27 UT

     The Minor Planet Electronic Circulars contain information on unusual
         minor planets and routine data on comets.  They are published
   on behalf of Commission 20 of the International Astronomical Union by the
          Minor Planet Center, Smithsonian Astrophysical Observatory,
                          Cambridge, MA 02138, U.S.A.

             Prepared using the Tamkin Foundation Computer Network

             BMARSDEN@CFA.HARVARD.EDU or GWILLIAMS@CFA.HARVARD.EDU
          URL http://cfa-www.harvard.edu/iau/mpc.html  ISSN 1523-6714

                                    2000 OM

Observations:
     K00O00M* C2000 07 23.32849 21 40 15.36 -15 15 19.9          17.0        704
     K00O00M  C2000 07 23.34195 21 40 11.40 -15 16 17.7          17.3        704
     K00O00M  C2000 07 23.35540 21 40 07.37 -15 17 16.3          17.2        704
     K00O00M  C2000 07 23.36887 21 40 03.42 -15 18 14.0          17.5        704
     K00O00M  C2000 07 24.21853 21 36 09.44 -16 17 22.0          17.8 V      739
     K00O00M  C2000 07 24.22178 21 36 08.55 -16 17 35.4          17.8 V      739
     K00O00M  C2000 07 24.22347 21 36 07.98 -16 17 42.6          17.9 V      739
     K00O00M  C2000 07 24.22500 21 36 07.60 -16 17 48.8          17.8 V      739
     K00O00M  C2000 07 24.32797 21 35 39.47 -16 24 42.2                      670
     K00O00M  C2000 07 24.38368 21 35 23.71 -16 28 26.7                      670
     K00O00M  C2000 07 24.40402 21 35 17.56 -16 29 47.7          16.4        704
     K00O00M  C2000 07 24.41730 21 35 13.80 -16 30 39.9          17.1        704
     K00O00M  C2000 07 24.42267 21 35 12.71 -16 31 02.5                      670
     K00O00M  C2000 07 24.42303 21 35 12.26 -16 31 03.6          17.7 R      854
     K00O00M  C2000 07 24.42443 21 35 11.87 -16 31 08.3                      854
     K00O00M  C2000 07 24.43047 21 35 10.12 -16 31 32.4          16.6        704
     K00O00M 1C2000 07 24.44061 21 35 07.94 -16 32 18.4                      658
     K00O00M 1C2000 07 24.44330 21 35 07.18 -16 32 29.0                      658
     K00O00M  C2000 07 24.44370 21 35 06.41 -16 32 24.8          16.7        704
     K00O00M 1C2000 07 24.44470 21 35 06.75 -16 32 35.2                      658
     K00O00M 1C2000 07 24.63204321 34 17.283-16 44 16.38         16.8 R      413
     K00O00M 1C2000 07 24.63318321 34 16.961-16 44 20.82         16.7 R      413
     K00O00M 1C2000 07 24.83016021 33 22.685-16 57 04.92         16.6 R      413
     K00O00M 1C2000 07 24.83124921 33 22.382-16 57 09.03         16.6 R      413
     K00O00M  C2000 07 25.18830 21 31 50.77 -17 20 08.4          17.8 V      859
     K00O00M IC2000 07 25.19332 21 31 49.54 -17 20 26.8          17.6 V      859
     K00O00M  C2000 07 25.19537 21 31 48.78 -17 20 36.0          17.3 V      859
     K00O00M  C2000 07 25.33174 21 31 14.51 -17 29 37.7                      670
     K00O00M  C2000 07 25.48622 21 30 33.03 -17 39 10.6                      670
     K00O00M  C2000 07 25.91900 21 28 45.52 -18 05 32.4          16.2 R      046
     K00O00M  C2000 07 25.92368 21 28 44.31 -18 05 49.0                      046
     K00O00M  C2000 07 25.92444 21 28 44.17 -18 05 51.6                      046
     K00O00M  C2000 07 25.92512 21 28 43.99 -18 05 53.8                      046
     K00O00M  C2000 07 25.92590 21 28 43.71 -18 05 55.5                      046
     K00O00M  C2000 07 25.96953 21 28 32.42 -18 08 34.5                      557
     K00O00M  C2000 07 25.97068 21 28 32.10 -18 08 38.4                      557
     K00O00M  C2000 07 25.97185 21 28 31.81 -18 08 42.7          16.8 V      557
     K00O00M  C2000 07 25.97302 21 28 31.51 -18 08 46.8                      557
     K00O00M  C2000 07 25.97419 21 28 31.18 -18 08 51.0                      557
     K00O00M  C2000 07 26.93897 21 24 35.95 -19 04 20.0          17.9 V      151
     K00O00M  C2000 07 26.94122 21 24 35.40 -19 04 27.3          18.0 V      151
     K00O00M  C2000 07 26.94214 21 24 35.17 -19 04 30.1          17.3 V      151
     K00O00M  C2000 07 26.94372 21 24 34.80 -19 04 35.8          17.4 V      151
     K00O00M  C2000 07 26.94528 21 24 34.40 -19 04 41.2          17.5 V      151
     K00O00M  C2000 07 26.94611 21 24 34.16 -19 04 44.8          17.4 V      151
     K00O00M  C2000 07 27.24541 21 23 21.57 -19 20 39.8          17.5 V      859
     K00O00M  C2000 07 27.24785 21 23 20.90 -19 20 47.7          17.7 V      859
     K00O00M  C2000 07 27.49141 21 22 25.79 -19 33 41.5          16.3 R      474
     K00O00M  C2000 07 27.49241 21 22 25.55 -19 33 45.2          16.2 R      474
     K00O00M  C2000 07 27.50075 21 22 23.51 -19 34 11.3          16.3 R      474
     K00O00M  C2000 07 27.50634 21 22 22.12 -19 34 29.8          16.0 R      474
     K00O00M  C2000 07 27.57220 21 22 06.86 -19 38 09.2          17.3 R      428
     K00O00M  C2000 07 27.57731 21 22 05.64 -19 38 24.9          17.4 R      428

Observer details:
046 Klet.  Observers M. Tichy, Z. Moravec, P. Jelinek.  0.57-m f/5.2 reflector
    + CCD.
151 Eschenberg Observatory, Winterthur.  Observer M. Griesser.  0.25-m f/8.0
    reflector + CCD.
413 Siding Spring.  Observer R. H. McNaught.  1.0-m f/8 reflector + CCD.
428 Reedy Creek.  Observer J. Broughton.  0.25-m f/6.3 Schmidt-Cassegrain
    + CCD.
474 Mount John Observatory, Lake Tekapo.  Observers I. P. Griffin, N. Brady,
    R. Greatrex.  1.0-m f/7.7 reflector + CCD.
557 Ondrejov.  Observer P. Pravec.  0.65-m f/3.6 reflector + CCD.
658 National Research Council of Canada.  Observer D. D. Balam.  1.82-m
    Plaskett reflector + CCD.
670 Camarillo.  Observer J. E. Rogers.  0.30-m f/6.7 Helin Telescope + CCD.
704 Lincoln Laboratory ETS, New Mexico.  Observers M. Blythe, F. Shelly,
    M. Bezpalko, M. Elowitz, R. Huber, L. Manguso.  Measurers J. Stuart,
    R. Sayer, J. B. Evans, H. Viggh.  1.0-m f/2.15 reflector + CCD.
739 Sunflower Observatory, Olathe.  Observer L. Robinson.  0.25-m
    Schmidt-Cassegrain + CCD.
854 Sabino Canyon Observatory, Tucson.  Observer J. E. McGaha.  0.30-m f/6.1
    Schmidt-Cassegrain + CCD.
859 Wykrota Observatory-CEAMIG.  Observers C. Jacques, L. Duczmal, D. Weaver.
    0.3-m f/3.3 Schmidt-Cassegrain + CCD.

Orbital elements:
2000 OM
Epoch 2000 July 15.0 TT = JDT 2451740.5                 Williams
M  27.74582              (2000.0)            P               Q
n   0.44143395     Peri.   73.71793     -0.93099275     +0.30787808
a   1.7082794      Node   123.81747     -0.35271366     -0.89712769
e   0.6426330      Incl.   13.65406     +0.09405093     -0.31681698
P   2.23           H   18.9           G   0.15
From 53 observations 2000 July 23-27.

Ephemeris:
2000 OM                  a,e,i = 1.71, 0.64, 14                  q = 0.6105
Date    TT    R. A. (2000) Decl.     Delta      r     Elong.  Phase     V
2000 07 25    21 32.67   -17 08.2    0.251    1.257   162.2    14.3    17.2
2000 07 30    21 13.27   -21 36.3    0.296    1.309   171.2     6.8    17.4
2000 08 04    20 58.13   -24 42.3    0.347    1.360   172.5     5.6    17.7
2000 08 09    20 46.55   -26 50.4    0.403    1.410   167.0     9.3    18.3
2000 08 14    20 37.94   -28 17.8    0.463    1.458   160.7    13.3    18.8
2000 08 19    20 31.79   -29 16.2    0.528    1.506   154.7    16.7    19.3
2000 08 24    20 27.67   -29 53.7    0.595    1.553   149.2    19.5    19.7
2000 08 29    20 25.28   -30 15.8    0.667    1.598   144.0    21.8    20.1
2000 09 03    20 24.36   -30 26.2    0.741    1.643   139.1    23.7    20.4
2000 09 08    20 24.67   -30 27.9    0.819    1.686   134.5    25.2    20.8
2000 09 13    20 26.03   -30 22.7    0.899    1.728   130.1    26.4    21.1
2000 09 18    20 28.27   -30 12.1    0.982    1.770   125.9    27.4    21.3
2000 09 23    20 31.26   -29 57.1    1.067    1.810   121.8    28.1    21.6
2000 09 28    20 34.88   -29 38.5    1.154    1.849   117.9    28.6    21.8
2000 10 03    20 39.06   -29 16.9    1.244    1.887   114.0    29.0    22.0

Gareth V. Williams           (C) Copyright 2000 MPC           M.P.E.C. 2000-O30

Read MPEC 2000-O29 Read MPEC 2000-O31


Our Web policy. Index to the CBAT/MPC/ICQ pages.


Valid HTML 4.01!